Location: Pilipovskiye Korichintsy
(49.1833°N, 27.4667°E)
Time: 22:48:22
(UTC+00:00)

Aureole 1 Rocket - Visible Passes

Search period start: 29 October 2020 00:00
Search period end: 08 November 2020 00:00
Orbit: 379 x 1377 km, 73.9° (Epoch: 28 October)

Date Brightness Start Highest point End Pass type
(mag) Time Alt. Az. Time Alt. Az. Time Alt. Az.
29 Oct 4.8 04:06:19 10° S 04:11:19 40° ESE 04:15:12 10° NE visible
30 Oct 4.4 04:02:23 10° S 04:07:23 46° ESE 04:11:16 10° NE visible
31 Oct 4.1 03:58:28 10° S 04:03:28 53° ESE 04:07:19 10° NNE visible
01 Nov 3.7 03:54:34 10° S 03:59:32 61° ESE 04:03:21 10° NNE visible
02 Nov 3.3 03:50:41 10° SSW 03:55:36 71° ESE 03:59:21 10° NNE visible
03 Nov 3.0 03:46:49 10° SSW 03:51:38 82° ESE 03:55:21 10° NNE visible
04 Nov 2.8 03:42:58 10° SSW 03:47:41 85° WNW 03:51:21 10° NNE visible
05 Nov 6.2 01:58:11 10° ESE 01:59:35 11° ESE 02:00:53 10° E visible
05 Nov 2.7 03:39:09 10° SSW 03:43:43 73° WNW 03:47:18 10° NNE visible
06 Nov 6.0 01:53:35 10° SE 01:55:34 13° ESE 01:57:24 10° ENE visible
06 Nov 2.7 03:35:20 10° SSW 03:39:45 61° WNW 03:43:15 10° NNE visible
07 Nov 5.8 01:49:10 10° SE 01:51:35 15° ESE 01:53:44 10° ENE visible
07 Nov 2.8 03:31:33 10° SW 03:35:46 51° WNW 03:39:10 10° NNE visible
